W1LBM Weather Reports


time (UTC)temp
F
wind
direction
speed
knots
gust
knots
rain 1hr
in
rain 24hr
in
rain mn
in
humidity
%
barometer
mb
20260507190109 63 299 3.5 6.1 0.00 0.24 0.24 35 1009.4
20260507185607 62 238 3.5 5.2 0.00 0.24 0.24 37 1009.3
20260507185103 62 177 1.7 2.6 0.00 0.24 0.24 35 1009.3
20260507184601 63 241 2.6 3.5 0.00 0.24 0.24 36 1009.4
20260507184059 63 277 1.7 1.7 0.00 0.24 0.24 35 1009.6
20260507183554 62 204 1.7 2.6 0.00 0.24 0.24 43 1009.5
20260507183052 62 219 1.7 2.6 0.00 0.24 0.24 37 1009.4
20260507182548 62 229 1.7 1.7 0.00 0.24 0.24 39 1009.6
20260507182044 62 211 3.5 3.5 0.00 0.24 0.24 40 1009.7
20260507181541 62 300 2.6 2.6 0.00 0.24 0.24 40 1009.8
20260507181037 62 359 6.1 8.7 0.00 0.24 0.24 38 1009.7
20260507180533 61 78 0.9 0.9 0.00 0.24 0.24 43 1009.9
20260507180031 62 256 4.3 6.1 0.00 0.24 0.24 37 1009.8
20260507175526 61 186 0.9 1.7 0.00 0.24 0.24 39 1009.8
20260507175025 61 307 7.0 11.3 0.00 0.24 0.24 38 1009.9
20260507174521 62 1 3.5 5.2 0.00 0.24 0.24 39 1010.0
20260507174019 61 194 1.7 1.7 0.00 0.24 0.24 41 1009.8
20260507173516 61 249 3.5 5.2 0.00 0.24 0.24 37 1010.2
20260507173013 61 3 2.6 3.5 0.00 0.24 0.24 38 1009.9
20260507172509 61 185 0.0 0.9 0.00 0.24 0.24 38 1009.9
20260507172006 61 134 1.7 1.7 0.00 0.24 0.24 40 1009.9
20260507171501 60 163 0.9 1.7 0.00 0.24 0.24 39 1010.1
20260507171000 61 180 2.6 3.5 0.00 0.24 0.24 40 1010.3
20260507170455 61 288 3.5 5.2 0.00 0.24 0.24 35 1010.3
20260507165952 61 152 1.7 1.7 0.00 0.24 0.24 41 1010.4
20260507165448 60 185 4.3 5.2 0.00 0.24 0.24 37 1010.5
20260507164944 60 223 1.7 1.7 0.00 0.24 0.24 38 1010.6
20260507164441 60 143 3.5 5.2 0.00 0.24 0.24 40 1010.4
20260507163937 60 211 3.5 5.2 0.00 0.24 0.24 38 1010.5
20260507163435 59 192 1.7 2.6 0.00 0.24 0.24 42 1010.5
20260507162932 60 216 1.7 2.6 0.00 0.24 0.24 47 1010.7
20260507162427 60 204 1.7 1.7 0.00 0.24 0.24 43 1010.6
20260507161925 59 226 1.7 3.5 0.00 0.24 0.24 46 1010.7
20260507161421 59 236 5.2 7.0 0.00 0.24 0.24 46 1010.7
20260507160918 60 193 1.7 2.6 0.00 0.24 0.24 45 1010.9
20260507160414 59 305 2.6 3.5 0.00 0.24 0.24 46 1011.0
20260507155910 59 303 1.7 3.5 0.00 0.24 0.24 50 1011.0
20260507155406 59 232 3.5 3.5 0.00 0.24 0.24 46 1010.9
20260507154903 59 249 1.7 2.6 0.00 0.24 0.24 50 1011.1
20260507154400 59 202 1.7 1.7 0.00 0.24 0.24 57 1011.2
20260507153950 59 258 2.6 5.2 0.00 0.24 0.24 56 1010.9
20260507153857 59 258 2.6 5.2 0.00 0.24 0.24 56 1010.9
20260507153353 59 233 1.7 2.6 0.00 0.24 0.24 57 1011.1
20260507153215 59 261 3.5 5.2 0.00 0.24 0.24 56 1011.2
20260507152850 59 261 3.5 5.2 0.00 0.24 0.24 56 1011.2
20260507152555 57 192 1.7 1.7 0.00 0.24 0.24 58 1011.2
20260507152346 58 205 1.7 1.7 0.00 0.24 0.24 55 1011.1
20260507151842 57 192 1.7 1.7 0.00 0.24 0.24 58 1011.2
20260507151338 57 185 1.7 2.6 0.00 0.24 0.24 59 1011.1
20260507150836 58 185 4.3 5.2 0.00 0.24 0.24 59 1011.2
20260507150332 58 228 4.3 5.2 0.00 0.24 0.24 59 1011.2
20260507145829 58 169 3.5 6.1 0.00 0.24 0.24 63 1011.2
20260507145325 57 244 1.7 1.7 0.00 0.24 0.24 64 1011.3
20260507144822 57 230 3.5 3.5 0.00 0.24 0.24 68 1011.2
20260507144320 57 187 2.6 2.6 0.00 0.24 0.24 67 1011.4
20260507143816 58 238 2.6 5.2 0.00 0.24 0.24 68 1011.3
20260507143313 57 204 1.7 1.7 0.00 0.24 0.24 71 1011.2
20260507142809 57 129 0.9 1.7 0.00 0.24 0.24 72 1011.5
20260507142307 56 212 1.7 2.6 0.00 0.24 0.24 72 1011.3
20260507141803 57 237 3.5 3.5 0.00 0.24 0.24 70 1011.4
20260507141300 56 245 0.0 0.9 0.00 0.24 0.24 76 1011.5
20260507140755 55 293 2.6 5.2 0.00 0.24 0.24 76 1011.7
20260507140253 55 256 0.9 1.7 0.00 0.24 0.24 78 1011.5
20260507135750 55 161 1.7 1.7 0.00 0.24 0.24 77 1011.5
20260507135247 56 176 0.9 1.7 0.00 0.24 0.24 75 1011.5
20260507134743 55 95 1.7 1.7 0.00 0.24 0.24 76 1011.7
20260507134240 56 276 2.6 3.5 0.00 0.24 0.24 77 1011.6
20260507133736 55 300 0.9 0.9 0.00 0.24 0.24 79 1011.7
20260507133233 54 186 0.9 1.7 0.00 0.24 0.24 78 1011.6
20260507132730 54 4 3.5 5.2 0.00 0.24 0.24 80 1011.8
20260507132227 53 327 1.7 2.6 0.00 0.24 0.24 82 1011.8
20260507131724 53 344 4.3 7.0 0.00 0.24 0.24 83 1011.8
20260507131221 53 176 1.7 1.7 0.00 0.24 0.24 84 1012.0
20260507130718 53 167 0.9 1.7 0.00 0.24 0.24 84 1011.9
20260507130216 52 153 0.9 1.7 0.00 0.24 0.24 87 1011.6
20260507125714 52 172 2.6 3.5 0.00 0.24 0.24 87 1011.7
20260507125212 51 214 1.7 2.6 0.00 0.24 0.24 90 1011.8
20260507124708 51 253 3.5 5.2 0.00 0.24 0.24 91 1011.8
20260507124205 50 201 1.7 2.6 0.00 0.24 0.24 93 1011.8
20260507123703 50 211 0.9 1.7 0.00 0.24 0.24 94 1011.8
20260507123200 50 255 1.7 1.7 0.00 0.24 0.24 96 1011.6
20260507122655 49 213 1.7 1.7 0.00 0.24 0.24 96 1011.8
20260507122151 49 255 1.7 2.6 0.00 0.24 0.24 96 1011.8
20260507121647 49 166 0.9 0.9 0.00 0.24 0.24 97 1011.8
20260507121143 49 173 0.9 0.9 0.00 0.24 0.24 97 1011.9
20260507120640 49 231 0.0 0.0 0.00 0.24 0.24 98 1011.8
20260507120136 49 172 0.0 0.0 0.00 0.24 0.24 98 1012.0
20260507115633 49 210 0.0 0.0 0.00 0.24 0.24 99 1011.6
20260507115128 49 175 0.0 0.0 0.00 0.24 0.24 99 1011.2
20260507114624 49 275 1.7 2.6 0.00 0.24 0.24 99 1011.4
20260507114122 49 208 0.0 0.0 0.00 0.24 0.24 99 1011.3
20260507113619 49 192 0.0 0.0 0.00 0.24 0.24 99 1011.5
20260507113116 49 183 0.0 0.0 0.00 0.24 0.24 99 1011.3
20260507112614 49 166 0.0 0.0 0.00 0.24 0.24 99 1011.2
20260507112110 49 157 0.0 0.0 0.00 0.24 0.24 99 1011.5
20260507111608 49 162 0.0 0.0 0.00 0.24 0.24 99 1011.4
20260507111104 49 156 0.0 0.0 0.05 0.24 0.24 99 1011.2
20260507110600 49 157 0.0 0.0 0.05 0.24 0.24 99 1011.2
20260507110057 49 155 0.0 0.0 0.12 0.24 0.24 99 1011.0
20260507105554 48 157 0.0 0.0 0.12 0.23 0.23 99 1011.3
20260507105050 48 156 0.0 0.0 0.05 0.22 0.22 99 1011.2
20260507104548 48 147 0.0 0.0 0.07 0.21 0.21 99 1011.1
20260507104044 48 190 0.0 0.0 0.07 0.21 0.21 99 1010.7
20260507103540 48 168 0.0 0.0 0.07 0.21 0.21 98 1010.9
20260507103037 48 175 0.0 0.0 0.05 0.20 0.20 98 1010.9
20260507102533 48 153 0.0 0.0 0.12 0.20 0.20 98 1010.8
20260507102031 48 76 0.0 0.0 0.14 0.19 0.19 98 1010.8
20260507101525 48 187 0.9 1.7 0.07 0.18 0.18 98 1011.1
20260507101022 48 161 0.0 0.0 0.00 0.17 0.17 98 1011.2
20260507100519 48 35 0.9 0.9 0.00 0.17 0.17 98 1011.1
20260507100017 49 162 0.9 0.9 0.00 0.17 0.17 98 1011.0
20260507095515 49 162 0.0 0.0 0.05 0.17 0.17 98 1010.9
20260507095011 49 170 0.0 0.0 0.05 0.17 0.17 98 1010.9
20260507094507 49 144 0.9 0.9 0.00 0.16 0.16 98 1011.0
20260507094005 49 274 0.9 0.9 0.00 0.16 0.16 98 1010.9
20260507093502 49 146 0.9 1.7 0.00 0.16 0.16 98 1010.8
20260507093000 49 301 1.7 2.6 0.00 0.16 0.16 98 1010.4
20260507092456 49 113 0.9 1.7 0.07 0.16 0.16 98 1010.6
20260507091953 49 170 0.9 0.9 0.07 0.16 0.16 98 1010.8
20260507091450 49 142 0.9 1.7 0.00 0.15 0.15 98 1010.6
20260507090946 49 137 1.7 1.7 0.00 0.15 0.15 98 1010.5
20260507090442 49 49 0.0 0.0 0.00 0.15 0.15 98 1010.5
20260507085938 49 231 0.9 1.7 0.00 0.15 0.15 98 1010.5
20260507085436 49 139 0.0 0.0 0.00 0.15 0.15 97 1010.6
20260507084933 49 166 0.9 0.9 0.00 0.15 0.15 97 1010.6
20260507084430 49 291 1.7 1.7 0.05 0.15 0.15 97 1010.1
20260507083926 49 219 0.9 0.9 0.05 0.15 0.15 97 1010.2
20260507083423 49 220 2.6 2.6 0.00 0.14 0.14 96 1010.4
20260507082919 49 224 1.7 2.6 0.07 0.14 0.14 97 1010.6
20260507082415 50 217 0.0 0.0 0.07 0.14 0.14 97 1010.5
20260507081912 50 277 2.6 3.5 0.00 0.13 0.13 97 1010.5
20260507081408 50 181 1.7 1.7 0.05 0.13 0.13 97 1010.5
20260507080905 50 358 0.9 1.7 0.17 0.13 0.13 96 1010.5
20260507080401 50 254 0.9 1.7 0.19 0.12 0.12 96 1010.1
20260507075857 50 187 1.7 1.7 0.07 0.10 0.10 96 1010.4
20260507075353 50 190 0.9 0.9 0.05 0.09 0.09 96 1010.8
20260507074850 50 207 1.7 3.5 0.12 0.09 0.09 96 1011.0
20260507074347 51 166 0.0 0.0 0.19 0.08 0.08 95 1010.6
20260507073844 51 273 0.9 1.7 0.31 0.07 0.07 94 1011.0
20260507073341 51 207 0.9 1.7 0.31 0.05 0.05 92 1010.7
20260507072838 52 260 1.7 3.5 0.12 0.02 0.02 90 1010.9
20260507072335 53 259 2.6 3.5 0.07 0.01 0.01 85 1010.4
20260507071833 54 198 1.7 1.7 0.00 0.00 0.00 82 1009.9
20260507071330 54 257 4.3 5.2 0.00 0.00 0.00 82 1009.5
20260507070826 54 205 3.5 5.2 0.00 0.00 0.00 82 1009.4
20260507070323 54 3 2.6 2.6 0.00 0.00 0.00 83 1009.3
20260507065820 55 194 0.9 0.9 0.00 0.00 0.00 84 1009.4
20260507065317 55 291 3.5 5.2 0.00 0.00 0.00 86 1009.5
20260507064814 55 221 5.2 7.0 0.00 0.00 0.00 91 1009.5
20260507064313 56 266 1.7 3.5 0.00 0.00 0.00 93 1009.7
20260507063810 56 225 1.7 2.6 0.00 0.00 0.00 93 1009.8
20260507063307 56 316 3.5 5.2 0.00 0.00 0.00 92 1009.7
20260507062803 56 206 1.7 1.7 0.00 0.00 0.00 92 1009.6
20260507062300 56 314 2.6 2.6 0.00 0.00 0.00 92 1009.6
20260507061759 56 251 0.9 1.7 0.00 0.00 0.00 92 1009.6
20260507061256 57 126 1.7 2.6 0.00 0.00 0.00 92 1009.6
20260507060754 57 143 0.0 0.9 0.00 0.00 0.00 93 1009.5
20260507060250 57 181 0.0 0.0 0.00 0.00 0.00 93 1009.6
20260507055747 57 290 2.6 2.6 0.00 0.00 0.00 93 1009.6
20260507055242 57 220 0.0 0.0 0.00 0.00 0.00 93 1009.7
20260507054739 58 127 1.7 1.7 0.00 0.00 0.00 93 1009.8
20260507054236 58 216 0.9 1.7 0.00 0.00 0.00 93 1009.9
20260507053733 58 140 1.7 2.6 0.00 0.00 0.00 93 1009.8
20260507053230 58 191 0.0 0.0 0.00 0.00 0.00 93 1010.3
20260507052730 58 156 0.0 0.0 0.00 0.00 0.00 92 1010.1
20260507052225 58 198 0.9 0.9 0.00 0.00 0.00 92 1010.1
20260507051724 58 187 0.9 0.9 0.00 0.00 0.00 92 1009.9
20260507051220 58 250 0.9 1.7 0.00 0.00 0.00 92 1010.2
20260507050716 58 275 1.7 3.5 0.00 0.00 0.00 92 1010.1
20260507050214 59 287 2.6 2.6 0.00 0.00 0.00 93 1009.9
20260507045710 59 172 0.9 0.9 0.00 0.00 0.00 93 1010.3
20260507045207 59 92 1.7 2.6 0.00 0.00 0.00 94 1010.1
20260507044704 59 160 0.0 0.0 0.00 0.00 0.00 94 1010.2
20260507044201 59 197 0.0 0.0 0.00 0.00 0.00 95 1010.3
20260507043657 59 166 0.0 0.0 0.00 0.00 0.00 95 1010.2
20260507043154 59 169 0.9 0.9 0.00 0.00 0.00 95 1010.2
20260507042650 59 189 1.7 1.7 0.00 0.00 0.00 95 1010.2
20260507042145 59 261 1.7 1.7 0.00 0.00 0.00 96 1010.3
20260507041642 59 238 2.6 2.6 0.00 0.00 0.00 96 1010.1
20260507041138 59 171 0.9 0.9 0.00 0.00 0.00 97 1009.8
20260507040636 59 179 0.9 0.9 0.00 0.00 0.00 97 1010.0
20260507040132 59 159 0.0 0.0 0.00 0.05 0.05 97 1010.0
20260507035628 59 158 0.0 0.0 0.00 0.05 0.05 97 1010.1
20260507035124 59 149 0.0 0.0 0.00 0.05 0.05 97 1009.9
20260507034621 59 156 0.0 0.0 0.00 0.05 0.05 98 1010.0
20260507034119 59 172 0.9 0.9 0.00 0.05 0.05 98 1010.1
20260507033617 59 172 0.0 0.0 0.00 0.05 0.05 98 1010.0
20260507033114 58 155 0.0 0.0 0.00 0.05 0.05 98 1010.1
20260507032611 58 162 0.0 0.0 0.00 0.05 0.05 98 1010.3
20260507032107 58 154 0.0 0.0 0.00 0.05 0.05 99 1010.1
20260507031604 58 151 0.0 0.0 0.00 0.05 0.05 99 1010.3
20260507031101 58 140 0.0 0.0 0.00 0.05 0.05 99 1010.0
20260507030557 58 202 0.0 0.9 0.00 0.05 0.05 99 1010.1
20260507030055 58 162 0.0 0.0 0.00 0.05 0.05 99 1010.2
20260507025552 58 214 3.5 5.2 0.00 0.05 0.05 99 1010.0
20260507025049 58 145 0.0 0.0 0.00 0.05 0.05 99 1009.9
20260507024547 58 157 0.0 0.0 0.00 0.05 0.05 99 1010.1
20260507024044 58 167 2.6 3.5 0.00 0.05 0.05 99 1010.2
20260507023539 58 202 1.7 2.6 0.00 0.05 0.05 99 1009.9
20260507023037 57 152 0.0 0.0 0.00 0.05 0.05 99 1010.0
20260507022534 57 159 0.0 0.0 0.00 0.05 0.05 99 1010.0
20260507022029 57 155 0.0 0.0 0.00 0.05 0.05 99 1010.2
20260507021525 57 202 1.7 2.6 0.00 0.05 0.05 99 1010.2
20260507021022 57 174 1.7 1.7 0.00 0.05 0.05 99 1010.0
20260507020520 57 186 0.0 0.0 0.00 0.05 0.05 99 1010.2
20260507020016 57 161 0.0 0.0 0.00 0.05 0.05 99 1010.1
20260507015515 57 139 0.0 0.0 0.00 0.05 0.05 99 1010.1
20260507015012 57 133 0.0 0.0 0.00 0.05 0.05 99 1010.2
20260507014508 57 196 0.9 1.7 0.00 0.05 0.05 99 1010.2
20260507014004 57 135 0.0 0.0 0.00 0.05 0.05 99 1010.1
20260507013500 57 155 0.0 0.9 0.00 0.05 0.05 99 1010.3
20260507012958 57 190 2.6 3.5 0.00 0.05 0.05 99 1010.1
20260507012455 57 191 1.7 2.6 0.00 0.05 0.05 99 1010.2
20260507011951 57 168 2.6 3.5 0.00 0.05 0.05 99 1010.4
20260507011448 57 195 1.7 1.7 0.00 0.05 0.05 99 1010.5
20260507010944 57 182 0.9 1.7 0.00 0.05 0.05 99 1010.5
20260507010439 57 177 0.9 0.9 0.00 0.05 0.05 99 1010.3
20260507005936 57 176 1.7 2.6 0.00 0.05 0.05 99 1010.4
20260507005433 57 151 0.0 0.0 0.00 0.05 0.05 99 1010.5
20260507004930 56 150 0.0 0.0 0.00 0.05 0.05 99 1010.5
20260507004426 56 150 0.0 0.0 0.00 0.05 0.05 99 1010.4
20260507003924 56 169 0.0 0.0 0.00 0.05 0.05 99 1010.6
20260507003419 56 167 1.7 2.6 0.00 0.05 0.05 99 1010.5
20260507002914 56 152 0.0 0.0 0.00 0.05 0.05 99 1010.3
20260507002410 56 182 1.7 2.6 0.00 0.05 0.05 99 1010.3
20260507001908 56 176 2.6 3.5 0.00 0.05 0.05 99 1010.4
20260507001404 56 175 0.0 0.0 0.00 0.05 0.05 99 1010.4
20260507000902 56 183 5.2 7.0 0.00 0.05 0.05 99 1010.5
20260507000358 56 160 0.9 0.9 0.00 0.05 0.05 99 1010.3
20260506235853 57 173 1.7 1.7 0.00 0.05 0.05 99 1010.5
20260506235351 57 166 2.6 3.5 0.00 0.05 0.05 99 1010.4
20260506234846 57 166 0.0 0.0 0.00 0.05 0.05 99 1010.3
20260506234344 57 147 0.0 0.0 0.00 0.05 0.05 99 1010.3
20260506233841 57 205 4.3 6.1 0.05 0.05 0.05 99 1010.2
20260506233337 57 201 3.5 3.5 0.05 0.05 0.05 99 1010.2
20260506232835 57 133 0.0 0.0 0.05 0.05 0.05 99 1010.2
20260506232330 57 189 2.6 2.6 0.00 0.04 0.04 99 1010.3
20260506231827 57 185 2.6 3.5 0.00 0.04 0.04 99 1010.1
20260506231324 57 178 0.9 1.7 0.00 0.04 0.04 99 1010.2
20260506230822 57 132 0.0 0.9 0.00 0.04 0.04 99 1010.1
20260506230318 57 133 0.9 0.9 0.00 0.04 0.04 99 1010.4
20260506225814 57 153 0.0 0.0 0.00 0.04 0.04 99 1010.3
20260506225312 57 178 0.9 0.9 0.07 0.04 0.04 99 1010.3
20260506224809 57 187 7.8 8.7 0.07 0.04 0.04 99 1010.3
20260506224306 57 160 0.0 0.0 0.00 0.03 0.03 99 1010.3
20260506223802 57 191 3.5 5.2 0.00 0.03 0.03 98 1010.2
20260506223257 57 132 0.9 0.9 0.00 0.03 0.03 98 1010.0
20260506222754 57 170 1.7 2.6 0.00 0.03 0.03 98 1010.0
20260506222250 58 181 0.0 0.0 0.00 0.03 0.03 98 1010.3
20260506221748 58 132 0.0 0.0 0.00 0.03 0.03 98 1010.3
20260506221246 58 140 0.9 0.9 0.00 0.03 0.03 98 1010.2
20260506220743 58 158 0.0 0.0 0.00 0.03 0.03 98 1010.4
20260506220238 58 204 1.7 2.6 0.05 0.03 0.03 98 1010.5
20260506215735 58 172 3.5 5.2 0.05 0.03 0.03 97 1010.7
20260506215230 58 215 2.6 3.5 0.00 0.02 0.02 97 1010.5
20260506214727 59 140 1.7 2.6 0.00 0.02 0.02 96 1010.7
20260506214224 59 189 2.6 3.5 0.00 0.02 0.02 96 1010.5
20260506213722 59 166 0.9 0.9 0.07 0.02 0.02 95 1010.6
20260506213220 59 177 3.5 5.2 0.07 0.02 0.02 94 1010.6
20260506212717 60 180 1.7 1.7 0.07 0.02 0.02 93 1010.7
20260506212212 60 164 0.0 0.9 0.00 0.01 0.01 91 1010.9
20260506211708 60 173 3.5 5.2 0.00 0.01 0.01 91 1010.8
20260506211204 60 196 3.5 5.2 0.00 0.01 0.01 91 1011.0
20260506210701 60 183 0.0 0.0 0.00 0.01 0.01 91 1010.8
20260506210159 60 166 0.9 0.9 0.00 0.01 0.01 92 1010.9
20260506205656 60 203 5.2 7.8 0.00 0.01 0.01 92 1010.8
20260506205156 60 185 2.6 3.5 0.00 0.01 0.01 92 1011.0
20260506204654 60 151 2.6 3.5 0.00 0.01 0.01 92 1011.1
20260506204150 60 168 0.9 1.7 0.00 0.01 0.01 92 1011.2
20260506203648 60 137 3.5 6.1 0.00 0.01 0.01 92 1011.0
20260506203145 59 167 0.9 1.7 0.00 0.01 0.01 92 1011.1
20260506202644 59 158 0.9 0.9 0.00 0.01 0.01 92 1011.1
20260506202139 59 178 2.6 5.2 0.00 0.01 0.01 92 1011.2
20260506201636 59 150 0.9 0.9 0.00 0.01 0.01 93 1011.3
20260506201133 59 171 1.7 2.6 0.00 0.01 0.01 93 1011.2
20260506200629 59 225 5.2 7.0 0.00 0.01 0.01 92 1011.2
20260506200126 59 177 5.2 7.0 0.00 0.01 0.01 93 1011.2
20260506195623 60 160 0.9 0.9 0.00 0.01 0.01 93 1011.5
20260506195119 60 170 1.7 1.7 0.00 0.01 0.01 92 1011.1
20260506194617 60 185 6.1 7.0 0.00 0.01 0.01 91 1011.3
20260506194113 60 194 1.7 1.7 0.05 0.01 0.01 90 1011.2
20260506193611 61 140 1.7 2.6 0.05 0.01 0.01 89 1011.5
20260506193108 61 178 5.2 7.0 0.00 0.00 0.00 86 1011.5
20260506192605 62 171 2.6 2.6 0.00 0.00 0.00 86 1011.4
20260506192100 62 184 1.7 2.6 0.00 0.00 0.00 84 1011.5
20260506191557 62 210 1.7 3.5 0.00 0.00 0.00 83 1011.4
20260506191053 62 189 5.2 7.0 0.00 0.00 0.00 82 1011.5
20260506190550 63 197 4.3 6.1 0.00 0.00 0.00 80 1011.5